ASA1376 KPDX-KBNA

Flight info

Callsign ASA1376
Flight time N/A
Altitude 33000
Route LAVAA7 PDT KU90M RICCO/N0450F350 KEEFF BOVEY WELTS RANTS RYYMN3
Aircraft B739/M-SDE2E3FGHIRWXY/LB1

Departure

Time 2026-05-06 12:14
Airport Portland International Airport (KPDX)

Arrival

Time N/A
Airport Nashville International Airport (KBNA)
Time Latitude Longitude Altitude Speed Heading
2026-05-06 11:52 45.59041 -122.59898 27 ft 0 kts 209°
2026-05-06 12:04 45.59050 -122.59891 17 ft 3 kts 209°
2026-05-06 12:05 45.59068 -122.59877 27 ft 3 kts 209°
2026-05-06 12:05 45.59083 -122.59865 27 ft 3 kts 219°
2026-05-06 12:05 45.59095 -122.59846 27 ft 3 kts 254°
2026-05-06 12:05 45.59095 -122.59821 28 ft 3 kts 291°
2026-05-06 12:06 45.59087 -122.59797 28 ft 3 kts 299°
2026-05-06 12:06 45.59077 -122.59771 28 ft 3 kts 299°
2026-05-06 12:06 45.59076 -122.59767 28 ft 0 kts 299°
2026-05-06 12:08 45.59081 -122.59781 28 ft 4 kts 299°
2026-05-06 12:09 45.59106 -122.59845 28 ft 10 kts 299°
2026-05-06 12:09 45.59139 -122.59963 27 ft 15 kts 274°
2026-05-06 12:09 45.59139 -122.60137 27 ft 20 kts 265°
2026-05-06 12:09 45.59060 -122.60297 27 ft 20 kts 227°
2026-05-06 12:10 45.58963 -122.60397 27 ft 12 kts 166°
2026-05-06 12:10 45.58919 -122.60298 27 ft 12 kts 115°
2026-05-06 12:10 45.58879 -122.60189 27 ft 14 kts 119°
2026-05-06 12:10 45.58822 -122.60043 27 ft 20 kts 119°
2026-05-06 12:11 45.58745 -122.59846 28 ft 25 kts 119°
2026-05-06 12:11 45.58661 -122.59632 27 ft 24 kts 119°
2026-05-06 12:11 45.58584 -122.59433 27 ft 23 kts 118°
2026-05-06 12:11 45.58508 -122.59239 27 ft 22 kts 119°
2026-05-06 12:12 45.58434 -122.59050 27 ft 22 kts 119°
2026-05-06 12:12 45.58363 -122.58866 27 ft 21 kts 119°
2026-05-06 12:12 45.58293 -122.58687 27 ft 20 kts 119°
2026-05-06 12:12 45.58225 -122.58514 27 ft 20 kts 119°
2026-05-06 12:13 45.58146 -122.58364 26 ft 19 kts 154°
2026-05-06 12:13 45.58071 -122.58438 27 ft 15 kts 281°
2026-05-06 12:13 45.58124 -122.58569 28 ft 19 kts 299°
2026-05-06 12:13 45.58279 -122.58968 28 ft 81 kts 299°
2026-05-06 12:14 45.58660 -122.59946 29 ft 141 kts 299°
2026-05-06 12:14 45.59228 -122.61340 187 ft 174 kts 302°
2026-05-06 12:14 45.59862 -122.62830 834 ft 180 kts 302°
2026-05-06 12:14 45.60517 -122.64336 1582 ft 178 kts 302°
2026-05-06 12:15 45.61188 -122.65870 2143 ft 190 kts 302°
2026-05-06 12:15 45.61916 -122.67543 2466 ft 210 kts 299°
2026-05-06 12:15 45.62677 -122.69448 2743 ft 229 kts 298°
2026-05-06 12:15 45.63495 -122.71503 3054 ft 248 kts 299°
2026-05-06 12:16 45.64364 -122.73667 3597 ft 259 kts 299°
2026-05-06 12:16 45.65266 -122.75901 4438 ft 259 kts 300°
2026-05-06 12:16 45.66317 -122.77975 5289 ft 260 kts 319°
2026-05-06 12:16 45.67917 -122.79194 6038 ft 265 kts 346°
2026-05-06 12:17 45.69758 -122.79207 6782 ft 270 kts 12°
2026-05-06 12:17 45.71504 -122.78148 7488 ft 276 kts 26°
2026-05-06 12:17 45.73196 -122.76787 8189 ft 281 kts 28°
2026-05-06 12:17 45.74747 -122.75113 8860 ft 289 kts 49°
2026-05-06 12:18 45.75696 -122.72519 9578 ft 296 kts 75°
2026-05-06 12:18 45.75894 -122.69604 10257 ft 302 kts 88°
2026-05-06 12:18 45.75880 -122.66510 10479 ft 324 kts 90°
2026-05-06 12:18 45.75820 -122.63168 10688 ft 344 kts 91°
2026-05-06 12:19 45.75751 -122.59701 11154 ft 353 kts 91°
2026-05-06 12:19 45.75686 -122.56161 11805 ft 356 kts 91°
2026-05-06 12:19 45.75629 -122.52614 12482 ft 359 kts 90°
2026-05-06 12:19 45.75577 -122.49020 13107 ft 362 kts 90°
2026-05-06 12:20 45.75529 -122.45391 13741 ft 366 kts 90°
2026-05-06 12:20 45.75483 -122.41738 14297 ft 369 kts 90°
2026-05-06 12:20 45.75437 -122.38093 14829 ft 373 kts 90°
2026-05-06 12:20 45.75390 -122.34364 15388 ft 377 kts 90°
2026-05-06 12:21 45.75341 -122.30590 15958 ft 380 kts 90°
2026-05-06 12:21 45.75291 -122.26784 16505 ft 384 kts 90°
2026-05-06 12:21 45.75239 -122.22950 17050 ft 388 kts 90°
2026-05-06 12:21 45.75186 -122.19059 17605 ft 392 kts 90°
2026-05-06 12:22 45.75131 -122.15142 18114 ft 396 kts 90°
2026-05-06 12:22 45.75074 -122.11240 18599 ft 399 kts 90°
2026-05-06 12:22 45.75014 -122.07247 19069 ft 402 kts 90°
2026-05-06 12:22 45.74953 -122.03229 19577 ft 405 kts 90°
2026-05-06 12:23 45.74890 -121.99203 20079 ft 407 kts 90°
2026-05-06 12:23 45.74825 -121.95126 20578 ft 409 kts 90°
2026-05-06 12:23 45.74759 -121.91037 21053 ft 413 kts 90°
2026-05-06 12:23 45.74691 -121.86917 21515 ft 416 kts 90°
2026-05-06 12:24 45.74632 -121.82772 21985 ft 418 kts 89°
2026-05-06 12:24 45.74604 -121.78589 22468 ft 421 kts 89°
2026-05-06 12:24 45.74588 -121.74388 22917 ft 424 kts 89°
2026-05-06 12:24 45.74575 -121.70208 23383 ft 427 kts 89°
2026-05-06 12:25 45.74560 -121.65948 23810 ft 429 kts 89°
2026-05-06 12:25 45.74541 -121.61662 24175 ft 432 kts 89°
2026-05-06 12:25 45.74517 -121.57346 24552 ft 435 kts 89°
2026-05-06 12:25 45.74491 -121.53007 24918 ft 437 kts 89°
2026-05-06 12:26 45.74461 -121.48645 25274 ft 440 kts 89°
2026-05-06 12:26 45.74429 -121.44255 25649 ft 443 kts 88°
2026-05-06 12:26 45.74394 -121.39824 26005 ft 445 kts 88°
2026-05-06 12:26 45.74380 -121.38019 26148 ft 446 kts 88°
2026-05-06 12:27 45.74343 -121.33613 26511 ft 448 kts 88°
2026-05-06 12:27 45.74304 -121.29144 26873 ft 450 kts 88°
2026-05-06 12:27 45.74263 -121.24650 27210 ft 453 kts 88°
2026-05-06 12:27 45.74220 -121.20133 27554 ft 455 kts 88°
2026-05-06 12:28 45.74176 -121.15577 27889 ft 458 kts 88°
2026-05-06 12:28 45.74129 -121.11011 28217 ft 460 kts 88°
2026-05-06 12:28 45.74080 -121.06423 28556 ft 462 kts 88°
2026-05-06 12:28 45.74029 -121.01817 28876 ft 465 kts 88°
2026-05-06 12:29 45.73976 -120.97175 29196 ft 467 kts 88°
2026-05-06 12:29 45.73922 -120.92577 29506 ft 469 kts 88°
2026-05-06 12:29 45.73864 -120.87902 29861 ft 470 kts 88°
2026-05-06 12:29 45.73804 -120.83232 30243 ft 470 kts 88°
2026-05-06 12:30 45.73743 -120.78574 30600 ft 469 kts 88°
2026-05-06 12:30 45.73679 -120.73913 30972 ft 467 kts 88°
2026-05-06 12:30 45.73614 -120.69270 31348 ft 466 kts 88°
2026-05-06 12:30 45.73547 -120.64614 31689 ft 465 kts 88°
2026-05-06 12:31 45.73479 -120.60052 32054 ft 464 kts 88°
2026-05-06 12:31 45.73408 -120.55372 32354 ft 465 kts 88°
2026-05-06 12:31 45.73338 -120.50814 32612 ft 465 kts 88°
2026-05-06 12:31 45.73266 -120.46184 32907 ft 465 kts 88°
2026-05-06 12:32 45.73113 -120.36899 32986 ft 467 kts 88°
2026-05-06 12:32 45.72952 -120.27653 32980 ft 463 kts 88°
2026-05-06 12:33 45.72785 -120.18536 32978 ft 460 kts 88°
2026-05-06 12:33 45.72613 -120.09399 32979 ft 459 kts 88°
2026-05-06 12:34 45.72433 -120.00279 32975 ft 459 kts 88°
2026-05-06 12:34 45.72246 -119.91146 32976 ft 459 kts 88°
2026-05-06 12:35 45.72052 -119.81987 32978 ft 461 kts 88°
2026-05-06 12:35 45.71850 -119.72885 32979 ft 462 kts 88°
2026-05-06 12:36 45.71639 -119.63678 32975 ft 463 kts 88°
2026-05-06 12:36 45.71420 -119.54451 32978 ft 464 kts 88°
2026-05-06 12:37 45.71194 -119.45224 32981 ft 465 kts 88°
2026-05-06 12:37 45.70959 -119.35962 32980 ft 465 kts 88°
2026-05-06 12:38 45.70719 -119.26789 32996 ft 464 kts 88°
2026-05-06 12:38 45.70470 -119.17572 33007 ft 464 kts 88°
2026-05-06 12:39 45.70215 -119.08362 33010 ft 463 kts 88°
2026-05-06 12:39 45.69955 -118.99187 33029 ft 462 kts 88°
2026-05-06 12:40 45.69545 -118.90081 33012 ft 464 kts 93°
2026-05-06 12:40 45.68471 -118.80967 33014 ft 465 kts 96°
2026-05-06 12:41 45.67252 -118.71904 33018 ft 464 kts 96°
2026-05-06 12:41 45.66412 -118.65414 33016 ft 463 kts 96°
2026-05-06 12:42 45.65293 -118.56413 33024 ft 463 kts 95°
2026-05-06 12:42 45.64186 -118.47346 33030 ft 463 kts 95°
2026-05-06 12:43 45.63075 -118.38268 33046 ft 463 kts 95°
2026-05-06 12:43 45.61955 -118.29208 33052 ft 464 kts 95°
2026-05-06 12:44 45.60826 -118.20143 33057 ft 463 kts 95°
2026-05-06 12:44 45.59696 -118.11140 33061 ft 463 kts 95°
2026-05-06 12:45 45.58554 -118.02094 33069 ft 464 kts 95°
2026-05-06 12:46 45.56825 -117.88519 33073 ft 463 kts 95°
2026-05-06 12:46 45.55670 -117.79518 33062 ft 463 kts 95°
2026-05-06 12:47 45.54502 -117.70477 33059 ft 463 kts 95°
2026-05-06 12:47 45.53326 -117.61437 33069 ft 463 kts 95°
2026-05-06 12:48 45.52143 -117.52405 33077 ft 463 kts 95°
2026-05-06 12:48 45.50953 -117.43374 33082 ft 463 kts 95°
2026-05-06 12:49 45.49765 -117.34416 33095 ft 462 kts 95°
2026-05-06 12:49 45.48566 -117.25430 33108 ft 462 kts 95°
2026-05-06 12:50 45.47360 -117.16448 33106 ft 461 kts 95°
2026-05-06 12:50 45.46147 -117.07474 33098 ft 461 kts 95°
2026-05-06 12:51 45.44938 -116.98579 33079 ft 460 kts 95°
2026-05-06 12:51 45.43716 -116.89648 33078 ft 460 kts 95°
2026-05-06 12:52 45.42489 -116.80722 33082 ft 460 kts 95°
2026-05-06 12:52 45.41251 -116.71783 33059 ft 460 kts 95°
2026-05-06 12:53 45.40007 -116.62855 33069 ft 460 kts 95°
2026-05-06 12:53 45.38764 -116.53985 33062 ft 461 kts 95°
2026-05-06 12:54 45.37505 -116.45059 33046 ft 460 kts 95°
2026-05-06 12:54 45.36246 -116.36167 33072 ft 457 kts 95°
2026-05-06 12:55 45.34983 -116.27315 33079 ft 457 kts 95°
2026-05-06 12:55 45.33721 -116.18524 33075 ft 458 kts 95°
2026-05-06 12:56 45.32438 -116.09640 33075 ft 458 kts 95°
2026-05-06 12:56 45.31152 -116.00781 33067 ft 459 kts 95°
2026-05-06 12:57 45.30243 -115.94555 33081 ft 458 kts 95°
2026-05-06 12:57 45.28950 -115.85737 33071 ft 458 kts 95°
2026-05-06 12:58 45.27646 -115.76894 33078 ft 458 kts 95°
2026-05-06 12:58 45.26335 -115.68050 33075 ft 458 kts 95°
2026-05-06 12:59 45.25016 -115.59209 33062 ft 457 kts 95°
2026-05-06 12:59 45.23691 -115.50389 33064 ft 458 kts 95°
2026-05-06 13:00 45.22361 -115.41621 33066 ft 458 kts 95°
2026-05-06 13:00 45.21021 -115.32802 33058 ft 457 kts 95°
2026-05-06 13:01 45.19682 -115.24012 33052 ft 456 kts 95°
2026-05-06 13:01 45.18333 -115.15211 33060 ft 456 kts 95°
2026-05-06 13:02 45.16995 -115.06487 33060 ft 456 kts 95°
2026-05-06 13:02 45.15640 -114.97708 33059 ft 456 kts 95°
2026-05-06 13:03 45.14272 -114.88927 33066 ft 456 kts 95°
2026-05-06 13:03 45.12898 -114.80156 33060 ft 456 kts 95°
2026-05-06 13:04 45.11518 -114.71398 33082 ft 456 kts 95°
2026-05-06 13:04 45.10140 -114.62690 33071 ft 457 kts 95°
2026-05-06 13:05 45.08741 -114.53916 33073 ft 457 kts 95°
2026-05-06 13:05 45.07334 -114.45140 33074 ft 457 kts 94°
2026-05-06 13:06 45.05928 -114.36380 33054 ft 457 kts 95°
2026-05-06 13:06 45.04526 -114.27708 33086 ft 455 kts 94°
2026-05-06 13:07 45.03109 -114.18975 33070 ft 456 kts 94°
2026-05-06 13:07 45.01682 -114.10249 33092 ft 456 kts 94°
2026-05-06 13:08 45.00248 -114.01519 33090 ft 456 kts 94°
2026-05-06 13:08 44.98929 -113.92846 33117 ft 453 kts 92°
2026-05-06 13:09 44.97744 -113.84107 33103 ft 453 kts 92°
2026-05-06 13:09 44.96556 -113.75356 33096 ft 454 kts 92°
2026-05-06 13:10 44.95340 -113.66608 33112 ft 454 kts 92°
2026-05-06 13:10 44.94105 -113.57858 33122 ft 455 kts 92°
2026-05-06 13:11 44.92868 -113.49162 33099 ft 455 kts 92°
2026-05-06 13:11 44.91618 -113.40431 33128 ft 453 kts 92°
2026-05-06 13:12 44.90712 -113.34139 33105 ft 454 kts 92°
2026-05-06 13:12 44.89452 -113.25427 33107 ft 453 kts 92°
2026-05-06 13:13 44.88197 -113.16790 33108 ft 452 kts 92°
2026-05-06 13:13 44.86927 -113.08102 33105 ft 452 kts 92°
2026-05-06 13:14 44.85654 -112.99439 33116 ft 451 kts 92°
2026-05-06 13:14 44.84378 -112.90801 33110 ft 450 kts 92°
2026-05-06 13:15 44.83103 -112.82223 33137 ft 449 kts 92°
2026-05-06 13:15 44.81816 -112.73604 33136 ft 450 kts 92°
2026-05-06 13:16 44.80521 -112.64976 33140 ft 450 kts 92°
2026-05-06 13:16 44.79220 -112.56360 33145 ft 450 kts 92°
2026-05-06 13:17 44.77912 -112.47746 33159 ft 450 kts 92°
2026-05-06 13:17 44.76609 -112.39208 33158 ft 451 kts 92°
2026-05-06 13:18 44.75283 -112.30569 33175 ft 450 kts 92°
2026-05-06 13:18 44.73954 -112.21959 33167 ft 450 kts 92°
2026-05-06 13:19 44.72622 -112.13367 33179 ft 450 kts 92°
2026-05-06 13:19 44.71291 -112.04836 33196 ft 450 kts 92°
2026-05-06 13:20 44.69940 -111.96220 33183 ft 450 kts 92°
2026-05-06 13:20 44.68588 -111.87643 33196 ft 450 kts 91°
2026-05-06 13:21 44.67227 -111.79050 33194 ft 450 kts 91°
2026-05-06 13:21 44.65862 -111.70481 33195 ft 450 kts 91°
2026-05-06 13:22 44.64497 -111.61954 33197 ft 450 kts 91°
2026-05-06 13:22 44.63118 -111.53384 33198 ft 450 kts 91°
2026-05-06 13:23 44.61734 -111.44828 33199 ft 449 kts 91°
2026-05-06 13:23 44.60343 -111.36268 33203 ft 449 kts 91°
2026-05-06 13:24 44.58949 -111.27733 33185 ft 449 kts 91°
2026-05-06 13:24 44.57559 -111.19272 33207 ft 447 kts 91°
2026-05-06 13:25 44.56157 -111.10773 33187 ft 448 kts 91°
2026-05-06 13:25 44.54748 -111.02274 33205 ft 447 kts 91°
2026-05-06 13:26 44.53335 -110.93794 33202 ft 447 kts 91°
2026-05-06 13:26 44.51925 -110.85368 33215 ft 447 kts 91°
2026-05-06 13:27 44.50929 -110.79447 33223 ft 448 kts 91°
2026-05-06 13:27 44.49497 -110.70963 33223 ft 448 kts 91°
2026-05-06 13:28 44.48058 -110.62482 33218 ft 448 kts 91°
2026-05-06 13:28 44.46621 -110.54063 33223 ft 447 kts 91°
2026-05-06 13:29 44.45172 -110.45611 33224 ft 445 kts 91°
2026-05-06 13:29 44.43723 -110.37195 33235 ft 444 kts 91°
2026-05-06 13:30 44.42270 -110.28795 33229 ft 444 kts 91°
2026-05-06 13:30 44.40813 -110.20409 33226 ft 443 kts 91°
2026-05-06 13:31 44.39364 -110.12108 33244 ft 442 kts 91°
2026-05-06 13:31 44.37902 -110.03773 33250 ft 441 kts 91°
2026-05-06 13:32 44.36433 -109.95447 33242 ft 441 kts 91°
2026-05-06 13:32 44.34972 -109.87198 33259 ft 439 kts 91°
2026-05-06 13:33 44.33517 -109.78983 33221 ft 437 kts 91°
2026-05-06 13:33 44.32053 -109.70793 33211 ft 438 kts 91°
2026-05-06 13:34 44.30570 -109.62497 33208 ft 442 kts 91°
2026-05-06 13:34 44.29068 -109.54160 33241 ft 442 kts 91°
2026-05-06 13:35 44.27565 -109.45874 33222 ft 444 kts 91°
2026-05-06 13:35 44.26039 -109.37486 33222 ft 447 kts 91°
2026-05-06 13:36 44.24502 -109.29076 33196 ft 448 kts 91°
2026-05-06 13:36 44.22962 -109.20743 33199 ft 439 kts 91°
2026-05-06 13:37 44.21453 -109.12575 33211 ft 438 kts 91°
2026-05-06 13:37 44.19937 -109.04353 33228 ft 439 kts 91°
2026-05-06 13:38 44.18403 -108.96084 33223 ft 441 kts 91°
2026-05-06 13:38 44.16867 -108.87857 33213 ft 442 kts 91°
2026-05-06 13:39 44.15310 -108.79562 33226 ft 443 kts 91°
2026-05-06 13:39 44.13747 -108.71281 33214 ft 444 kts 92°
2026-05-06 13:40 44.12165 -108.62966 33208 ft 444 kts 92°
2026-05-06 13:40 44.10588 -108.54664 33208 ft 444 kts 92°
2026-05-06 13:41 44.09017 -108.46406 33207 ft 444 kts 92°
2026-05-06 13:41 44.07453 -108.38240 33199 ft 444 kts 92°
2026-05-06 13:42 44.06443 -108.32995 33192 ft 443 kts 92°
2026-05-06 13:42 44.04845 -108.24722 33187 ft 443 kts 92°
2026-05-06 13:43 44.03254 -108.16519 33186 ft 442 kts 93°
2026-05-06 13:43 44.01652 -108.08290 33186 ft 442 kts 93°
2026-05-06 13:44 44.00038 -108.00037 33177 ft 442 kts 93°
2026-05-06 13:44 43.98424 -107.91816 33184 ft 442 kts 93°
2026-05-06 13:45 43.96811 -107.83636 33182 ft 442 kts 94°
2026-05-06 13:45 43.94363 -107.71283 33185 ft 443 kts 94°
2026-05-06 13:46 43.92724 -107.63060 33185 ft 443 kts 94°
2026-05-06 13:46 43.91073 -107.54807 33196 ft 444 kts 94°
2026-05-06 13:47 43.89427 -107.46614 33204 ft 444 kts 94°
2026-05-06 13:47 43.87765 -107.38373 33206 ft 444 kts 94°
2026-05-06 13:48 43.86106 -107.30188 33211 ft 445 kts 95°
2026-05-06 13:48 43.84426 -107.21924 33208 ft 445 kts 95°
2026-05-06 13:49 43.82741 -107.13670 33211 ft 446 kts 95°
2026-05-06 13:49 43.81061 -107.05470 33208 ft 446 kts 95°
2026-05-06 13:50 43.79255 -106.97199 33199 ft 450 kts 97°
2026-05-06 13:50 43.77325 -106.88959 33195 ft 450 kts 98°
2026-05-06 13:51 43.75404 -106.80788 33189 ft 450 kts 98°
2026-05-06 13:51 43.73482 -106.72565 33187 ft 450 kts 98°
2026-05-06 13:52 43.71558 -106.64325 33192 ft 450 kts 98°
2026-05-06 13:52 43.69635 -106.56109 33187 ft 450 kts 99°
2026-05-06 13:53 43.67713 -106.47923 33182 ft 450 kts 99°
2026-05-06 13:53 43.65772 -106.39696 33185 ft 451 kts 99°
2026-05-06 13:54 43.63824 -106.31466 33202 ft 451 kts 100°
2026-05-06 13:54 43.61872 -106.23247 33194 ft 452 kts 100°
2026-05-06 13:55 43.59920 -106.15063 33195 ft 452 kts 101°
2026-05-06 13:55 43.57946 -106.06813 33197 ft 453 kts 101°
2026-05-06 13:56 43.55966 -105.98569 33193 ft 453 kts 101°
2026-05-06 13:56 43.54699 -105.93311 33197 ft 455 kts 102°
2026-05-06 13:57 43.52674 -105.84912 33435 ft 464 kts 102°
2026-05-06 13:57 43.51653 -105.80699 33753 ft 464 kts 102°
2026-05-06 13:57 43.50643 -105.76546 34119 ft 463 kts 102°
2026-05-06 13:58 43.49620 -105.72348 34388 ft 462 kts 102°
2026-05-06 13:58 43.48596 -105.68150 34585 ft 464 kts 103°
2026-05-06 13:58 43.47564 -105.63923 34770 ft 465 kts 103°
2026-05-06 13:58 43.46541 -105.59738 34994 ft 465 kts 103°
2026-05-06 13:59 43.45513 -105.55547 35182 ft 464 kts 103°
2026-05-06 13:59 43.44491 -105.51378 35170 ft 468 kts 104°
2026-05-06 13:59 43.42394 -105.42862 35177 ft 467 kts 104°
2026-05-06 14:00 43.40309 -105.34429 35182 ft 465 kts 104°
2026-05-06 14:00 43.38223 -105.26017 35179 ft 464 kts 104°
2026-05-06 14:01 43.36140 -105.17647 35186 ft 463 kts 105°
2026-05-06 14:01 43.34061 -105.09319 35194 ft 464 kts 105°
2026-05-06 14:02 43.31963 -105.00948 35182 ft 465 kts 105°
2026-05-06 14:02 43.29860 -104.92586 35188 ft 467 kts 105°
2026-05-06 14:03 43.27716 -104.84091 35198 ft 469 kts 106°
2026-05-06 14:03 43.25570 -104.75624 35193 ft 471 kts 106°
2026-05-06 14:04 43.23422 -104.67177 35202 ft 473 kts 106°
2026-05-06 14:04 43.21246 -104.58652 35204 ft 474 kts 106°
2026-05-06 14:05 43.19064 -104.50134 35212 ft 475 kts 107°
2026-05-06 14:05 43.16868 -104.41593 35217 ft 475 kts 107°
2026-05-06 14:06 43.14661 -104.33037 35220 ft 476 kts 107°
2026-05-06 14:06 43.12468 -104.24569 35222 ft 476 kts 107°
2026-05-06 14:07 43.10249 -104.16031 35221 ft 475 kts 108°
2026-05-06 14:07 43.08031 -104.07525 35218 ft 475 kts 108°
2026-05-06 14:08 43.05803 -103.99013 35216 ft 475 kts 108°
2026-05-06 14:08 43.03570 -103.90508 35206 ft 475 kts 108°
2026-05-06 14:09 43.01348 -103.82080 35203 ft 475 kts 108°
2026-05-06 14:09 42.99106 -103.73602 35201 ft 475 kts 108°
2026-05-06 14:10 42.96850 -103.65104 35212 ft 476 kts 109°
2026-05-06 14:10 42.94604 -103.56673 35214 ft 476 kts 109°
2026-05-06 14:11 42.92320 -103.48128 35216 ft 477 kts 109°
2026-05-06 14:11 42.90925 -103.42924 35212 ft 478 kts 109°
2026-05-06 14:12 42.88638 -103.34416 35207 ft 478 kts 109°
2026-05-06 14:12 42.86339 -103.25895 35197 ft 479 kts 109°
2026-05-06 14:13 42.84034 -103.17380 35195 ft 479 kts 110°
2026-05-06 14:13 42.81732 -103.08905 35196 ft 480 kts 110°
2026-05-06 14:14 42.79410 -103.00386 35197 ft 481 kts 110°
2026-05-06 14:14 42.77072 -102.91839 35196 ft 482 kts 110°
2026-05-06 14:15 42.74727 -102.83294 35204 ft 482 kts 110°
2026-05-06 14:15 42.72373 -102.74747 35205 ft 482 kts 111°
2026-05-06 14:16 42.70030 -102.66271 35200 ft 482 kts 111°
2026-05-06 14:16 42.67663 -102.57735 35202 ft 482 kts 111°
2026-05-06 14:17 42.65290 -102.49210 35191 ft 482 kts 111°
2026-05-06 14:17 42.62909 -102.40684 35188 ft 483 kts 111°
2026-05-06 14:18 42.60540 -102.32227 35190 ft 482 kts 112°
2026-05-06 14:18 42.58147 -102.23716 35185 ft 483 kts 112°
2026-05-06 14:19 42.55749 -102.15214 35189 ft 483 kts 112°
2026-05-06 14:19 42.53344 -102.06715 35192 ft 483 kts 112°
2026-05-06 14:20 42.51336 -101.99643 35198 ft 483 kts 112°
2026-05-06 14:20 42.48522 -101.89764 35198 ft 484 kts 112°
2026-05-06 14:21 42.46093 -101.81261 35198 ft 484 kts 113°
2026-05-06 14:21 42.44064 -101.74187 35193 ft 485 kts 113°
2026-05-06 14:22 42.41618 -101.65671 35194 ft 486 kts 113°
2026-05-06 14:22 42.38767 -101.55770 35191 ft 486 kts 113°
2026-05-06 14:23 42.36722 -101.48687 35194 ft 487 kts 114°
2026-05-06 14:23 42.34249 -101.40151 35192 ft 488 kts 114°
2026-05-06 14:24 42.31769 -101.31617 35189 ft 488 kts 114°
2026-05-06 14:24 42.29281 -101.23086 35178 ft 489 kts 114°
2026-05-06 14:25 42.26780 -101.14541 35169 ft 489 kts 114°
2026-05-06 14:25 42.24288 -101.06052 35174 ft 490 kts 114°
2026-05-06 14:26 42.21771 -100.97507 35166 ft 491 kts 115°
2026-05-06 14:26 42.20004 -100.91527 35169 ft 491 kts 115°
2026-05-06 14:27 42.17488 -100.83034 35175 ft 492 kts 115°
2026-05-06 14:27 42.14942 -100.74466 35179 ft 493 kts 115°
2026-05-06 14:28 42.12384 -100.65887 35179 ft 494 kts 115°
2026-05-06 14:28 42.09826 -100.57336 35181 ft 494 kts 115°
2026-05-06 14:29 42.07245 -100.48740 35183 ft 495 kts 115°
2026-05-06 14:29 42.04674 -100.40203 35181 ft 496 kts 116°
2026-05-06 14:30 42.02076 -100.31602 35173 ft 497 kts 116°
2026-05-06 14:30 41.99470 -100.23007 35172 ft 497 kts 116°
2026-05-06 14:31 41.96851 -100.14395 35165 ft 498 kts 116°
2026-05-06 14:31 41.94301 -100.06035 35165 ft 498 kts 116°
2026-05-06 14:32 41.91663 -99.97419 35168 ft 498 kts 116°
2026-05-06 14:32 41.89026 -99.88832 35156 ft 499 kts 117°
2026-05-06 14:33 41.86369 -99.80207 35163 ft 499 kts 117°
2026-05-06 14:33 41.83731 -99.71672 35155 ft 500 kts 117°
2026-05-06 14:34 41.81059 -99.63057 35163 ft 500 kts 117°
2026-05-06 14:34 41.78385 -99.54461 35145 ft 501 kts 117°
2026-05-06 14:35 41.75694 -99.45839 35158 ft 501 kts 117°
2026-05-06 14:35 41.73031 -99.37336 35161 ft 502 kts 117°
2026-05-06 14:36 41.70372 -99.28870 35162 ft 502 kts 118°
2026-05-06 14:36 41.67678 -99.20322 35159 ft 503 kts 118°
2026-05-06 14:37 41.64932 -99.11633 35168 ft 503 kts 118°
2026-05-06 14:37 41.62199 -99.03017 35164 ft 504 kts 118°
2026-05-06 14:38 41.59477 -98.94459 35163 ft 504 kts 118°
2026-05-06 14:38 41.56758 -98.85943 35160 ft 504 kts 118°
2026-05-06 14:39 41.54006 -98.77348 35163 ft 504 kts 118°
2026-05-06 14:39 41.51240 -98.68735 35166 ft 505 kts 118°
2026-05-06 14:40 41.48466 -98.60125 35164 ft 505 kts 118°
2026-05-06 14:40 41.45687 -98.51527 35168 ft 505 kts 118°
2026-05-06 14:41 41.42918 -98.42990 35165 ft 505 kts 119°
2026-05-06 14:41 41.41085 -98.37349 35166 ft 505 kts 119°
2026-05-06 14:42 41.38292 -98.28782 35165 ft 505 kts 119°
2026-05-06 14:42 41.35497 -98.20232 35171 ft 505 kts 119°
2026-05-06 14:43 41.32850 -98.12162 35171 ft 505 kts 119°
2026-05-06 14:43 41.30034 -98.03603 35170 ft 505 kts 119°
2026-05-06 14:44 41.27212 -97.95051 35170 ft 506 kts 119°
2026-05-06 14:45 41.22961 -97.82218 35170 ft 506 kts 119°
2026-05-06 14:45 41.20122 -97.73680 35173 ft 506 kts 120°
2026-05-06 14:46 41.17264 -97.65114 35175 ft 507 kts 120°
2026-05-06 14:46 41.14422 -97.56622 35172 ft 507 kts 120°
2026-05-06 14:47 41.11697 -97.48501 35175 ft 508 kts 120°
2026-05-06 14:47 41.08829 -97.39982 35173 ft 508 kts 120°
2026-05-06 14:48 41.05943 -97.31434 35170 ft 509 kts 120°
2026-05-06 14:48 41.03069 -97.22947 35169 ft 509 kts 120°
2026-05-06 14:49 41.00036 -97.14018 35168 ft 509 kts 121°
2026-05-06 14:49 40.97139 -97.05518 35177 ft 510 kts 121°
2026-05-06 14:50 40.94249 -96.97066 35176 ft 510 kts 121°
2026-05-06 14:50 40.91745 -96.89761 35175 ft 511 kts 121°
2026-05-06 14:51 40.88802 -96.81199 35189 ft 511 kts 122°
2026-05-06 14:51 40.85980 -96.73012 35177 ft 512 kts 122°
2026-05-06 14:52 40.83617 -96.66177 35188 ft 512 kts 122°
2026-05-06 14:52 40.80780 -96.57994 35181 ft 513 kts 122°
2026-05-06 14:53 40.77961 -96.49886 35172 ft 513 kts 122°
2026-05-06 14:53 40.75021 -96.41452 35164 ft 514 kts 123°
2026-05-06 14:54 40.72244 -96.33508 35161 ft 515 kts 123°
2026-05-06 14:54 40.69237 -96.24934 35164 ft 516 kts 123°
2026-05-06 14:55 40.66218 -96.16350 35166 ft 517 kts 123°
2026-05-06 14:55 40.63189 -96.07764 35176 ft 517 kts 123°
2026-05-06 14:56 40.60172 -95.99238 35182 ft 518 kts 124°
2026-05-06 14:56 40.57636 -95.92089 35177 ft 519 kts 124°
2026-05-06 14:57 40.54847 -95.84248 35179 ft 520 kts 124°
2026-05-06 14:57 40.51777 -95.75642 35178 ft 520 kts 124°
2026-05-06 14:58 40.48716 -95.67087 35170 ft 521 kts 124°
2026-05-06 14:58 40.45628 -95.58480 35155 ft 522 kts 125°
2026-05-06 14:59 40.42522 -95.49852 35151 ft 523 kts 125°
2026-05-06 14:59 40.39410 -95.41229 35134 ft 524 kts 126°
2026-05-06 15:00 40.36332 -95.32722 35138 ft 525 kts 126°
2026-05-06 15:00 40.33185 -95.24036 35141 ft 526 kts 126°
2026-05-06 15:01 40.30053 -95.15359 35147 ft 526 kts 126°
2026-05-06 15:01 40.26917 -95.06687 35150 ft 527 kts 126°
2026-05-06 15:02 40.23774 -94.98025 35156 ft 527 kts 126°
2026-05-06 15:02 40.20639 -94.89416 35150 ft 528 kts 127°
2026-05-06 15:03 40.17478 -94.80761 35146 ft 528 kts 127°
2026-05-06 15:03 40.14305 -94.72103 35142 ft 528 kts 127°
2026-05-06 15:04 40.11130 -94.63461 35138 ft 528 kts 127°
2026-05-06 15:04 40.07959 -94.54859 35126 ft 529 kts 127°
2026-05-06 15:05 40.04766 -94.46217 35123 ft 529 kts 127°
2026-05-06 15:05 40.01562 -94.37575 35140 ft 529 kts 128°
2026-05-06 15:06 39.98355 -94.28949 35150 ft 529 kts 128°
2026-05-06 15:06 39.95169 -94.20404 35155 ft 529 kts 128°
2026-05-06 15:07 39.91935 -94.11758 35158 ft 529 kts 128°
2026-05-06 15:07 39.88702 -94.03139 35146 ft 530 kts 128°
2026-05-06 15:08 39.85463 -93.94528 35145 ft 530 kts 128°
2026-05-06 15:08 39.82216 -93.85922 35128 ft 530 kts 128°
2026-05-06 15:09 39.78983 -93.77377 35121 ft 530 kts 129°
2026-05-06 15:09 39.75716 -93.68767 35121 ft 531 kts 129°
2026-05-06 15:10 39.72444 -93.60171 35115 ft 531 kts 129°
2026-05-06 15:10 39.69183 -93.51626 35115 ft 532 kts 129°
2026-05-06 15:11 39.65893 -93.43030 35116 ft 533 kts 129°
2026-05-06 15:11 39.63145 -93.35868 35114 ft 533 kts 129°
2026-05-06 15:12 39.60130 -93.28032 35109 ft 533 kts 129°
2026-05-06 15:12 39.56838 -93.19498 35106 ft 534 kts 129°
2026-05-06 15:13 39.53510 -93.10894 35118 ft 534 kts 129°
2026-05-06 15:13 39.50177 -93.02304 35116 ft 534 kts 129°
2026-05-06 15:14 39.46840 -92.93727 35099 ft 534 kts 129°
2026-05-06 15:14 39.43487 -92.85133 35102 ft 534 kts 129°
2026-05-06 15:15 39.40130 -92.76552 35106 ft 534 kts 129°
2026-05-06 15:15 39.36790 -92.68042 35106 ft 534 kts 129°
2026-05-06 15:16 39.33427 -92.59496 35101 ft 534 kts 129°
2026-05-06 15:16 39.30046 -92.50928 35101 ft 534 kts 130°
2026-05-06 15:17 39.26667 -92.42390 35095 ft 534 kts 130°
2026-05-06 15:17 39.23305 -92.33916 35092 ft 534 kts 130°
2026-05-06 15:18 39.19910 -92.25386 35090 ft 534 kts 130°
2026-05-06 15:18 39.16514 -92.16875 35088 ft 534 kts 130°
2026-05-06 15:19 39.13134 -92.08429 35094 ft 534 kts 130°
2026-05-06 15:19 39.09726 -91.99936 35098 ft 534 kts 130°
2026-05-06 15:20 39.06310 -91.91445 35106 ft 534 kts 130°
2026-05-06 15:20 39.02889 -91.82964 35102 ft 534 kts 130°
2026-05-06 15:21 38.99457 -91.74501 35092 ft 533 kts 130°
2026-05-06 15:21 38.95987 -91.66164 35085 ft 533 kts 131°
2026-05-06 15:22 38.92462 -91.57790 35080 ft 533 kts 131°
2026-05-06 15:22 38.88955 -91.49456 35062 ft 533 kts 131°
2026-05-06 15:23 38.85429 -91.41072 35064 ft 533 kts 131°
2026-05-06 15:23 38.81917 -91.32736 35058 ft 533 kts 131°
2026-05-06 15:24 38.78384 -91.24375 35076 ft 533 kts 131°
2026-05-06 15:24 38.74856 -91.16046 35071 ft 532 kts 131°
2026-05-06 15:25 38.71316 -91.07717 35075 ft 532 kts 131°
2026-05-06 15:25 38.67803 -90.99470 35079 ft 532 kts 131°
2026-05-06 15:26 38.64289 -90.91241 35085 ft 531 kts 131°
2026-05-06 15:26 38.61310 -90.84283 35079 ft 530 kts 131°
2026-05-06 15:27 38.58400 -90.77500 35054 ft 529 kts 131°
2026-05-06 15:27 38.54865 -90.69281 35059 ft 527 kts 131°
2026-05-06 15:28 38.51317 -90.61059 35052 ft 527 kts 131°
2026-05-06 15:28 38.47779 -90.52877 35065 ft 527 kts 131°
2026-05-06 15:29 38.44234 -90.44699 35068 ft 526 kts 131°
2026-05-06 15:29 38.40684 -90.36532 35060 ft 526 kts 131°
2026-05-06 15:30 38.37153 -90.28430 35063 ft 526 kts 131°
2026-05-06 15:30 38.33598 -90.20292 35056 ft 527 kts 131°
2026-05-06 15:31 38.30029 -90.12144 35062 ft 527 kts 132°
2026-05-06 15:31 38.26449 -90.03992 35051 ft 527 kts 132°
2026-05-06 15:32 38.21103 -89.91856 35052 ft 527 kts 132°
2026-05-06 15:32 38.17520 -89.83747 35050 ft 527 kts 132°
2026-05-06 15:33 38.13924 -89.75629 35049 ft 527 kts 132°
2026-05-06 15:33 38.10352 -89.67587 35043 ft 527 kts 132°
2026-05-06 15:34 38.06745 -89.59485 35036 ft 526 kts 132°
2026-05-06 15:34 38.03138 -89.51405 35036 ft 526 kts 132°
2026-05-06 15:35 37.99538 -89.43361 35065 ft 525 kts 132°
2026-05-06 15:35 37.95952 -89.35367 35063 ft 525 kts 132°
2026-05-06 15:36 37.92334 -89.27324 35071 ft 525 kts 132°
2026-05-06 15:36 37.88718 -89.19305 35074 ft 525 kts 132°
2026-05-06 15:37 37.85091 -89.11280 35064 ft 524 kts 132°
2026-05-06 15:37 37.81481 -89.03314 35061 ft 524 kts 132°
2026-05-06 15:38 37.77873 -88.95371 35069 ft 524 kts 132°
2026-05-06 15:38 37.74236 -88.87384 35064 ft 524 kts 132°
2026-05-06 15:39 37.70589 -88.79396 35058 ft 524 kts 132°
2026-05-06 15:39 37.66947 -88.71437 35056 ft 525 kts 131°
2026-05-06 15:40 37.63309 -88.63505 35052 ft 525 kts 131°
2026-05-06 15:40 37.59645 -88.55537 35050 ft 525 kts 131°
2026-05-06 15:41 37.55976 -88.47579 35042 ft 525 kts 131°
2026-05-06 15:41 37.53498 -88.42213 35033 ft 525 kts 131°
2026-05-06 15:42 37.49819 -88.34265 35040 ft 525 kts 131°
2026-05-06 15:42 37.46128 -88.26311 34890 ft 528 kts 131°
2026-05-06 15:43 37.44261 -88.22301 34468 ft 530 kts 131°
2026-05-06 15:43 37.42412 -88.18323 34003 ft 526 kts 131°
2026-05-06 15:43 37.40572 -88.14364 33473 ft 522 kts 131°
2026-05-06 15:43 37.38774 -88.10500 32990 ft 517 kts 131°
2026-05-06 15:44 37.36970 -88.06630 32490 ft 512 kts 130°
2026-05-06 15:44 37.35173 -88.02785 32022 ft 508 kts 130°
2026-05-06 15:44 37.33385 -87.98964 31551 ft 503 kts 130°
2026-05-06 15:44 37.31621 -87.95202 31096 ft 498 kts 130°
2026-05-06 15:45 37.29871 -87.91475 30645 ft 494 kts 130°
2026-05-06 15:45 37.28132 -87.87777 30185 ft 490 kts 130°
2026-05-06 15:45 37.26408 -87.84113 29671 ft 485 kts 130°
2026-05-06 15:45 37.24720 -87.80530 29178 ft 481 kts 130°
2026-05-06 15:46 37.23006 -87.76890 28723 ft 475 kts 130°
2026-05-06 15:46 37.21354 -87.73389 28258 ft 471 kts 130°
2026-05-06 15:46 37.19634 -87.69942 27867 ft 459 kts 135°
2026-05-06 15:46 37.17779 -87.66783 27585 ft 445 kts 139°
2026-05-06 15:47 37.15858 -87.63762 27162 ft 439 kts 140°
2026-05-06 15:47 37.13935 -87.60810 26729 ft 435 kts 141°
2026-05-06 15:47 37.12059 -87.57922 26304 ft 432 kts 140°
2026-05-06 15:47 37.10156 -87.54955 25884 ft 430 kts 140°
2026-05-06 15:48 37.08324 -87.52064 25470 ft 427 kts 140°
2026-05-06 15:48 37.06490 -87.49148 25029 ft 426 kts 139°
2026-05-06 15:48 37.04664 -87.46234 24591 ft 424 kts 139°
2026-05-06 15:48 37.02853 -87.43340 24172 ft 422 kts 139°
2026-05-06 15:49 37.01047 -87.40455 23740 ft 420 kts 139°
2026-05-06 15:49 36.99247 -87.37582 23258 ft 419 kts 139°
2026-05-06 15:49 36.97455 -87.34724 22788 ft 417 kts 139°
2026-05-06 15:49 36.95675 -87.31886 22349 ft 413 kts 139°
2026-05-06 15:50 36.93924 -87.29099 21922 ft 410 kts 139°
2026-05-06 15:50 36.92146 -87.26270 21483 ft 407 kts 139°
2026-05-06 15:50 36.90427 -87.23539 21074 ft 404 kts 139°
2026-05-06 15:50 36.88703 -87.20803 20662 ft 401 kts 139°
2026-05-06 15:51 36.86973 -87.18062 20249 ft 399 kts 139°
2026-05-06 15:51 36.85262 -87.15351 19838 ft 397 kts 138°
2026-05-06 15:51 36.83554 -87.12646 19434 ft 395 kts 138°
2026-05-06 15:51 36.81802 -87.10132 19026 ft 381 kts 150°
2026-05-06 15:52 36.79670 -87.08410 18682 ft 356 kts 166°
2026-05-06 15:52 36.77462 -87.07067 18307 ft 351 kts 168°
2026-05-06 15:52 36.75265 -87.05778 17916 ft 347 kts 168°
2026-05-06 15:52 36.73089 -87.04489 17545 ft 345 kts 167°
2026-05-06 15:53 36.70945 -87.03195 17188 ft 342 kts 167°
2026-05-06 15:53 36.68816 -87.01897 16842 ft 338 kts 166°
2026-05-06 15:53 36.66724 -87.00616 16503 ft 335 kts 166°
2026-05-06 15:53 36.64640 -86.99342 16183 ft 332 kts 166°
2026-05-06 15:54 36.62576 -86.98081 15848 ft 329 kts 166°
2026-05-06 15:54 36.60557 -86.96850 15527 ft 327 kts 166°
2026-05-06 15:54 36.58520 -86.95609 15202 ft 326 kts 165°
2026-05-06 15:54 36.56493 -86.94375 14882 ft 324 kts 165°
2026-05-06 15:55 36.54469 -86.93143 14573 ft 322 kts 165°
2026-05-06 15:55 36.52457 -86.91921 14259 ft 322 kts 165°
2026-05-06 15:55 36.50449 -86.90701 13941 ft 321 kts 165°
2026-05-06 15:55 36.48439 -86.89480 13605 ft 321 kts 164°
2026-05-06 15:56 36.46440 -86.88267 13253 ft 320 kts 164°
2026-05-06 15:56 36.44474 -86.87072 12915 ft 319 kts 163°
2026-05-06 15:56 36.43174 -86.86283 12714 ft 318 kts 163°
2026-05-06 15:56 36.41816 -86.85459 12495 ft 317 kts 163°
2026-05-06 15:57 36.39844 -86.84263 12169 ft 315 kts 163°
2026-05-06 15:57 36.37878 -86.83071 11876 ft 313 kts 162°